Tracking 31027 objects as of 19-Jul-2025
HD Live streaming from Space Station
objects crossing your sky now

STARLINK-1144

Track STARLINK-1144 now!
10-day predictions
STARLINK-1144 is classified as:


NORAD ID: 44933
Int'l Code: 2020-001V
Perigee: 451.1 km
Apogee: 456.5 km
Inclination: 53.1 °
Period: 93.5 minutes
Semi major axis: 6824 km
RCS: Unknown
Launch date: January 7, 2020
Source: United States (US)
Launch site: AIR FORCE EASTERN TEST RANGE (AFETR)
Your satellite tracking list
STARLINK-31879
Track 1 satellite(s)




NASA's NSSDC Master Catalog

Two Line Element Set (TLE):
1 44933U 20001V   25199.51073313  .00054258  00000-0  13480-2 0  9997
2 44933  53.0515 283.9983 0003949  83.6822 276.4631 15.39810711306329
Source of the keplerian elements: AFSPC